Miscellaneous Local Product
Issued by NWS North Platte, NE

Home | Current Version | Previous Version | Text Only | Print | Product List | Glossary On
Versions: 1 2 3 4 5 6 7 8 9 10 11 12 13 14 15 16 17 18 19 20 21 22 23 24 25 26 27 28 29 30 31 32 33 34 35 36 37 38 39 40 41 42 43 44 45 46 47 48 49 50
000
AXUS43 KLBF 231610
MISLBF


WESTERN AND NORTH CENTRAL NEBRASKA HOURLY WEATHER ROUNDUP
NATIONAL WEATHER SERVICE NORTH PLATTE NE
1100 AM CDT MON APR 23 2018

NOTE: "FAIR" INDICATES FEW OR NO CLOUDS BELOW 12,000 FEET WITH NO
SIGNIFICANT WEATHER AND/OR OBSTRUCTIONS TO VISIBILITY.

NOTE: STATIONS NOT REPORTING VARIABLES SUCH AS SKY/WEATHER OR
PRESSURE ARE PROVIDED BY RAWS AND APRS NETWORKS AND ARE NOT UNDER
NATIONAL WEATHER SERVICE QUALITY CONTROL.

...OBSERVATIONS IN AND NEAR THE EASTERN PANHANDLE OF NEBRASKA...

CITY           SKY/WX    TMP DP  RH WIND       PRES   REMARKS
PINE RIDGE     SUNNY     58  40  51 S10       30.10F
GORDON         FAIR      58  40  51 S9        30.11F
CHADRON        SUNNY     61  41  47 S12       30.07F
ALLIANCE       SUNNY     56  40  55 S16       30.11S
SIDNEY         SUNNY     54  39  57 S15       30.12R
CRESCENT LAKE    N/A     55  39  55 S9G16       N/A
$$

...OBSERVATIONS IN NORTHERN NEBRASKA AND FAR SOUTHERN SOUTH DAKOTA...

CITY           SKY/WX    TMP DP  RH WIND       PRES   REMARKS
WINNER         FAIR      61  38  42 S13       30.16F
VALENTINE      SUNNY     62  38  40 S15       30.15F
AINSWORTH      SUNNY     59  40  49 S10       30.17S
O`NEILL        SUNNY     66  33  29 S8        30.19S
THEDFORD       SUNNY     59  40  49 S8        30.17S
BROKEN BOW     SUNNY     60  39  45 SE8       30.17S
ORD            SUNNY     60  39  45 CALM      30.17F
ALBION         SUNNY     62  37  39 SE3       30.18F
VALENTINE NWR    N/A     54  41  62 S7          N/A
HALSEY           N/A     59  38  45 S6          N/A
BUTTE            N/A     58  41  53 SE7         N/A
CHAMBERS         N/A     67  42  41 E3          N/A
EWING            N/A     64  37  36 S5          N/A
$$

...OBSERVATIONS IN SOUTHWEST NEBRASKA AND FAR NORTHEAST COLORADO...

CITY           SKY/WX    TMP DP  RH WIND       PRES   REMARKS
WRAY           FAIR      55  37  50 S16       30.14F
HOLYOKE        FAIR      59  41  51 S18G24    30.14S
IMPERIAL       SUNNY     57  40  52 SE15G24   30.15F
OGALLALA       SUNNY     56  42  58 S12       30.15F
NORTH PLATTE   SUNNY     58  42  55 S8        30.16F
MCCOOK         SUNNY     57  42  57 E5        30.17F
LEXINGTON      SUNNY     59  42  53 SE7       30.18S
STAPLETON        N/A     59  42  53 CALM        N/A
GOTHENBURG       N/A     55  40  56 CALM        N/A
CALLAWAY         N/A     58  45  62 SE6         N/A
$$

...OBSERVATIONS IN CENTRAL LINCOLN COUNTY AREA...

CITY           SKY/WX    TMP DP  RH WIND       PRES   REMARKS
N.P. AIRPORT   SUNNY     58  42  55 S8        30.16F
N.P. DOWNTOWN    N/A     59  42  52 SW3         N/A
N.P. SOUTHEAST   N/A     58  40  52 S7G16       N/A
N.P. HILLCREST   N/A     58  43  58 SE3         N/A
$$

...OBSERVATIONS ACROSS THE ROCKIES AND WESTERN HIGH PLAINS...

CITY           SKY/WX    TMP DP  RH WIND       PRES   REMARKS
RAPID CITY     SUNNY     53  42  66 SE7       30.10R
SCOTTSBLUFF    SUNNY     54  43  66 SE12      30.09F
CHEYENNE       MOSUNNY   58  37  45 S15       30.09F
DENVER         PTSUNNY   53  40  61 CALM      30.09S
BERTHOUD PASS  PTSUNNY   30  21  69 W36G44    30.34S WCI  14
MONARCH PASS   MOSUNNY   34  27  75 W18G25    30.48R WCI  23
ASPEN          MOSUNNY   53  30  41 S3        30.18S
STEAMBOAT      FAIR      49  32  52 CALM      30.11F
LARAMIE        MOSUNNY   58  32  37 SW14      30.09F
CASPER         PTSUNNY   53  40  61 N9G20     30.02F
$$

...OBSERVATIONS ACROSS THE NORTHERN PLAINS...

CITY           SKY/WX    TMP DP  RH WIND       PRES   REMARKS
BISMARCK       SUNNY     60  31  33 E17G24    30.20F
FARGO          FAIR      56  41  57 W6        30.18F
PIERRE         SUNNY     59  42  53 SE10      30.14F
SIOUX FALLS    MOSUNNY   61  33  35 VRB5      30.21S
$$

...OBSERVATIONS ACROSS THE CENTRAL AND SOUTHERN PLAINS...

CITY           SKY/WX    TMP DP  RH WIND       PRES   REMARKS
OMAHA          MOSUNNY   64  32  30 CALM      30.18F
GRAND ISLAND   SUNNY     59  38  45 S3        30.19S
KANSAS CITY    MOSUNNY   66  36  32 N14       30.11F
WICHITA        PTSUNNY   64  41  42 N10       30.14S
DODGE CITY     SUNNY     59  42  53 SE3       30.18S
OKLAHOMA CITY  MOSUNNY   63  47  55 N13       30.12S
DALLAS         MOSUNNY   65  51  60 NW13      30.09S
AMARILLO       SUNNY     57  38  48 E7        30.21S
$$




USA.gov is the U.S. government's official web portal to all federal, state and local government web resources and services.